CAPE
0 0 0 0 0 0 0 0 0 0 0 0 0 0 0 0 0 0 0 0 0 0 0 19 24 36 106 110 77 146 200 304 392 408 763 834 864 840 732 370 970 1038 722 1284 1486 1572 1508 1660 1552 1440 1379 1435 1520 1777 1859 1652 1667 1645 2246 2231 2296 1906 2322 2277 2544 2661 2742 2711 2790 2657 2553 2331 2340 2710 2877 2837 2734 2597 2570 2540 2453 2340 2252 1985 1941 2195
0 0 0 0 0 0 0 0 0 0 0 0 0 0 0 0 0 0 0 0 0 0 0 1 9 30 90 84 68 123 271 163 253 356 630 807 799 724 517 417 961 1033 1188 1591 1724 1766 1788 1819 1790 1740 1648 1928 1833 2252 2326 2102 2168 1887 2246 2379 2793 2699 2646 2477 2587 2627 2566 2521 2580 2523 2352 2509 2694 2782 3260 2887 2534 2286 2205 2374 2440 2333 2167 1941 2039 2534
0 0 0 0 0 0 0 0 0 0 0 0 0 0 0 0 0 1 0 0 0 0 0 0 3 3 55 50 60 279 313 310 164 162 449 667 679 639 480 636 896 920 1576 1647 1752 1894 1815 1964 2074 2090 2083 2056 1960 2510 2570 2475 2711 2634 2347 2472 2908 2999 2772 2583 2592 2695 2587 2576 2567 2381 2392 2467 2530 2593 2500 2184 1788 2102 2202 1959 1905 1967 2236 2181 2140 2471
0 0 0 0 0 0 0 0 0 0 0 0 0 0 0 0 0 0 0 2 0 0 0 0 4 0 14 16 60 246 279 287 351 217 245 538 603 616 612 726 825 863 1618 1650 1795 1893 1970 2179 2211 2240 2273 2361 2570 2667 2872 2921 2957 2997 2580 2475 2862 2904 2874 2754 2578 2788 2618 2669 2594 2316 2337 2332 2260 2175 2049 1652 1191 106 5 40 59 285 1224 1637 1736 1278
0 0 0 0 0 0 0 0 0 0 0 0 0 0 0 0 0 0 2 1 0 3 6 1 1 0 0 91 43 27 40 40 185 366 441 482 500 552 662 768 814 941 1460 1718 1770 1865 2010 2292 2218 2240 2333 2307 2852 2792 2985 3150 2917 3144 2927 2784 2781 2790 2764 2861 3002 2969 2719 2799 2546 2366 2522 2373 2002 1593 624 47 66 165 359 21 55 174 249 423 523 706
0 0 0 0 0 0 0 0 0 0 0 0 0 0 0 0 0 0 3 5 6 9 1 45 44 1 0 0 36 18 0 0 40 271 429 522 473 395 751 869 948 1057 1308 1688 1789 1929 1993 2256 2281 2270 2349 2338 2827 2975 2980 3237 3055 3055 3036 2831 2904 2700 2556 2690 3124 2876 2630 2535 2336 2165 2148 1777 1139 934 326 46 1 0 0 25 60 233 217 212 210 293
0 0 0 0 0 0 0 0 0 0 0 0 0 0 0 0 0 1 1 4 11 0 24 47 28 53 0 0 94 190 0 0 8 95 285 466 476 560 801 935 1088 1170 1357 1598 1760 1881 2053 2148 2353 2334 2394 2343 2764 3087 2962 3204 3219 2995 3116 2955 2951 2816 2583 2788 3004 2908 2760 2601 2418 2311 2062 1311 475 17 95 43 0 0 0 21 2 31 159 52 24 130
0 0 0 0 0 0 0 0 0 0 0 0 0 0 0 0 3 0 0 0 0 1 11 7 0 28 38 0 66 101 78 0 0 8 44 351 481 584 798 947 1208 1219 1419 1686 1777 1817 2066 2109 2356 2374 2434 2361 2710 3004 3067 3129 3278 3060 3096 3178 2874 2832 2952 2786 2827 2760 2723 2631 2501 2277 1645 932 514 0 105 182 6 112 332 1 0 0 157 160 71 149
0 0 0 0 0 0 0 0 0 0 0 0 0 0 0 0 18 20 16 18 19 32 34 6 13 23 0 25 46 51 0 0 10 18 10 113 162 548 752 889 1193 1275 1406 1708 1822 1863 1966 2130 2276 2375 2470 2443 2624 2967 3074 3076 3240 3155 3042 3279 2822 2858 3138 2974 2739 2556 2513 2432 2310 2026 1229 1094 14 0 41 305 749 368 237 3 54 143 328 365 262 58
0 0 0 0 0 0 0 0 0 0 0 0 0 0 0 0 15 33 41 41 40 34 14 1 6 25 10 44 39 18 13 48 52 46 20 42 74 259 658 890 1070 1233 1312 1554 1733 1863 1922 2030 2168 2300 2414 2470 2491 2922 3003 3061 3148 3069 3018 3321 2958 2777 3065 3192 2976 2891 2779 2533 2068 1508 1090 0 119 386 124 86 0 40 90 57 29 258 146 19 0 68
0 0 0 0 0 0 0 0 0 0 0 0 0 0 0 0 0 27 43 36 29 0 0 0 3 2 24 10 33 8 38 26 41 33 19 30 37 174 341 777 1024 1185 1199 1325 1540 1684 1818 1958 2096 2199 2324 2420 2430 2733 2897 2958 3074 3075 2994 3191 3174 2955 2901 3198 3231 3104 2797 1955 1419 1347 869 0 99 84 66 0 20 70 169 10 184 124 8 0 0 337
0 0 0 0 0 0 0 0 0 0 0 0 0 0 0 0 0 0 35 34 0 5 0 0 0 0 0 0 0 6 19 11 14 22 53 70 142 258 205 593 885 1138 1195 1287 1384 1531 1701 1912 2054 2112 2198 2239 2290 2607 2750 2778 2913 3003 2942 2953 3025 2966 2930 3028 3190 3082 2207 1755 815 0 0 0 10 39 9 0 12 16 68 81 126 27 4 113 126 189
0 0 0 0 0 0 0 0 0 0 0 0 0 0 0 0 0 0 0 0 0 0 0 0 16 11 0 0 6 4 18 15 18 23 20 55 118 193 65 487 782 1098 1230 1316 1377 1463 1594 1799 1982 2022 2042 1997 2129 2452 2616 2708 2858 2913 2844 2856 2860 2834 2826 2888 2932 2788 2088 1758 940 0 0 0 0 0 0 0 0 0 12 25 10 1 5 23 0 0
0 0 0 0 0 0 0 0 0 0 0 0 0 0 0 0 0 0 0 0 0 0 0 0 0 0 0 0 0 3 18 49 28 18 14 48 100 114 27 409 758 989 1198 1269 1350 1434 1522 1639 1803 1854 1788 1765 2010 2297 2488 2645 2808 2912 2910 2890 2790 2754 2764 2805 2698 2344 1898 1373 446 0 0 0 56 0 0 0 0 0 4 6 0 0 0 4 0 0
0 0 0 0 0 0 0 0 0 0 0 0 0 0 0 0 0 0 0 0 0 0 0 0 0 0 0 0 0 17 57 79 69 57 48 46 80 44 12 259 721 913 1070 1200 1259 1358 1421 1466 1585 1593 1544 1635 1900 2128 2370 2579 2757 2860 2920 2902 2806 2743 2757 2724 2515 2196 1862 914 0 6 0 0 0 0 0 0 0 43 5 0 0 0 0 0 0 75
0 0 0 0 0 0 0 0 0 0 0 0 0 0 0 0 0 0 0 0 0 0 0 0 0 0 0 0 0 17 64 52 80 70 53 41 38 8 10 159 590 829 955 1085 1172 1193 1238 1277 1308 1289 1377 1548 1825 2036 2271 2518 2679 2752 2809 2830 2789 2705 2669 2611 2450 2167 1587 290 0 0 0 0 6 130 0 38 271 2 0 0 0 0 0 0 16 30
0 0 0 0 0 0 0 0 0 0 0 0 0 0 0 0 0 0 0 0 0 0 0 0 0 0 0 0 0 0 17 63 37 72 63 33 4 1 8 180 482 730 854 956 995 1018 1042 1094 1044 1114 1265 1512 1808 2017 2262 2480 2604 2680 2717 2719 2706 2623 2547 2509 2409 2087 1305 62 29 0 0 0 4 84 0 62 55 0 0 0 0 0 0 0 0 63
0 0 0 0 0 0 0 0 0 0 0 0 0 0 0 0 0 0 0 0 0 0 0 0 0 0 0 0 0 1 9 21 56 71 78 66 6 13 8 25 424 679 793 824 831 854 905 927 899 1073 1231 1594 1872 2057 2234 2451 2577 2615 2629 2639 2633 2589 2460 2406 2267 1879 913 100 131 0 0 0 0 2 0 0 0 0 0 0 0 0 0 0 86 121
0 0 0 0 0 0 0 0 0 0 0 0 0 0 0 0 0 0 0 0 0 0 0 0 0 0 0 0 0 7 32 66 76 78 74 51 14 37 30 16 105 556 716 797 780 743 803 806 854 1072 1240 1694 1945 2102 2237 2407 2530 2568 2552 2546 2516 2467 2399 2228 2024 1547 593 126 175 31 0 0 0 0 0 0 0 4 3 2 0 0 0 0 8 253
0 0 0 0 0 0 0 0 0 0 0 0 0 0 0 0 0 0 0 0 0 0 0 0 0 0 0 0 0 1 13 60 94 86 86 59 46 30 36 21 86 398 568 711 791 790 766 754 754 1020 1218 1744 1995 2158 2278 2407 2482 2509 2498 2480 2460 2401 2336 2165 1750 1164 344 135 81 62 0 0 14 16 0 0 0 0 0 0 0 0 0 0 95 56
0 0 0 0 0 0 0 0 0 0 0 0 0 0 0 0 0 0 0 0 0 0 0 0 0 0 0 0 0 0 1 54 74 103 107 94 14 16 92 76 132 254 360 534 653 725 732 666 665 924 1126 1700 2043 2195 2335 2420 2448 2459 2446 2416 2410 2374 2274 2033 1448 725 474 245 28 59 0 0 6 57 24 18 5 1 0 0 0 0 0 0 0 12
0 0 0 0 0 0 0 0 0 0 0 0 0 0 0 0 0 0 0 0 0 0 0 0 0 0 0 0 0 0 7 47 60 86 116 84 7 12 46 194 218 269 300 332 429 553 587 534 497 726 948 1527 2055 2252 2380 2416 2404 2396 2394 2400 2409 2326 2219 1903 1065 528 510 462 44 38 0 6 0 24 4 7 12 1 0 0 0 0 0 0 0 0
0 0 0 0 0 0 0 0 0 0 0 0 0 0 0 0 0 0 0 0 0 0 0 0 0 0 0 0 0 0 0 6 10 22 3 4 19 19 25 34 278 279 299 338 99 407 460 453 416 525 836 1417 1956 2269 2370 2357 2372 2368 2391 2393 2375 2262 2107 1614 698 492 337 454 424 23 17 42 54 20 9 4 0 8 0 0 0 0 3 0 0 0
4 0 0 0 0 0 0 0 0 0 0 0 0 0 0 0 0 0 0 0 0 0 0 0 0 0 0 3 0 0 0 0 0 0 0 13 36 138 165 237 253 57 402 424 400 254 529 484 404 598 967 1443 1880 2190 2295 2316 2338 2338 2346 2341 2302 2226 2048 1612 666 373 108 179 434 7 43 74 100 69 25 11 10 3 2 4 0 15 0 0 0 0
0 0 0 0 0 0 0 0 0 0 0 0 0 0 0 0 0 0 0 0 0 0 0 0 0 0 0 8 0 0 0 0 0 0 0 98 159 171 110 29 35 129 361 454 508 499 585 677 663 818 1112 1512 1902 2132 2196 2199 2232 2248 2241 2230 2218 2158 1994 1563 724 650 431 7 12 5 33 91 57 56 44 22 22 34 21 22 34 46 44 0 0 0
0 0 0 0 0 0 0 0 0 0 0 0 0 0 0 0 0 0 0 2 0 0 0 0 0 0 0 1 0 0 0 0 0 0 0 4 227 258 269 131 164 254 501 511 518 553 590 744 857 967 1234 1592 1930 2127 2133 2094 2112 2136 2150 2175 2130 2069 1984 1516 974 995 491 429 158 74 34 79 81 50 38 55 46 105 119 78 53 0 2 0 0 0
0 0 0 0 0 0 0 0 0 0 0 0 0 0 0 0 0 0 0 0 0 0 0 1 0 0 0 0 0 0 0 0 0 0 0 126 168 241 293 274 450 526 698 655 588 553 585 669 864 1076 1322 1652 1956 2158 2160 2108 2077 2105 2152 2167 2102 1997 1884 1657 1297 849 683 513 524 303 238 87 126 109 93 140 91 94 92 47 14 0 0 0 0 0
0 0 0 0 0 0 0 0 0 0 0 0 0 0 0 0 0 0 0 0 0 15 2 0 0 0 0 0 0 0 0 0 0 0 0 0 0 75 21 372 933 669 748 784 674 616 622 680 721 960 1230 1632 1956 2126 2175 2118 2084 2055 2094 2099 2040 1945 1900 1771 1412 1078 784 554 625 342 223 140 160 144 121 114 87 34 9 1 0 0 0 0 0 0
0 0 0 0 0 0 0 0 0 0 0 1 1 0 0 0 0 0 0 0 0 0 0 0 0 0 0 0 0 0 0 0 0 0 0 0 0 0 16 509 898 781 752 834 865 791 763 755 739 796 1042 1472 1900 2092 2125 2082 2057 2035 2048 2035 1984 1899 1832 1633 1346 1265 1197 1007 664 379 328 331 174 144 149 185 69 45 8 0 0 0 0 0 0 0
0 0 0 0 0 6 12 1 0 1 8 10 9 9 3 1 0 0 0 10 0 2 0 0 50 0 0 0 0 0 0 0 0 0 0 0 0 0 0 481 768 700 698 688 830 970 952 909 928 1000 981 1252 1767 2039 2068 2090 2119 2107 2074 2041 2038 1869 1657 1463 1380 934 1189 1010 854 560 581 496 439 295 426 425 100 68 38 6 0 0 0 0 0 0
0 0 42 0 9 41 39 26 15 11 17 28 31 29 17 17 5 6 2 7 6 8 5 36 1 0 0 0 0 0 0 0 0 0 0 0 0 5 150 524 709 817 831 663 801 1202 1164 992 981 1255 1388 1330 1534 1936 2087 2033 2002 2004 1971 1930 1863 1777 1654 1253 1102 1018 818 1080 862 881 804 672 519 232 101 111 66 23 37 13 0 0 0 0 0 0
6 1 68 5 20 48 41 26 15 19 27 40 54 57 16 20 43 15 2 1 1 13 14 10 22 0 0 0 4 0 0 0 0 0 0 0 0 13 78 450 812 884 980 844 879 1376 1648 1552 1453 1469 1651 1746 1654 1700 1948 2143 2110 2050 2052 2090 2111 2145 1860 1271 1207 1007 926 1311 1302 1071 960 728 289 81 96 68 54 77 20 0 0 0 0 0 0 4
17 0 0 0 9 38 40 24 18 33 46 49 60 37 44 46 30 33 34 24 22 8 25 21 0 0 0 29 30 12 0 6 26 2 1 6 1 10 27 301 861 1107 1195 1258 1234 1281 1634 1974 2028 1996 1987 1974 1980 1907 1832 1856 2005 2124 2149 2102 2090 2109 2160 2001 1389 1106 1040 1055 971 980 978 704 389 272 128 247 161 143 383 1 0 0 0 1 7 27
41 5 0 0 7 26 36 36 29 41 48 46 31 23 35 70 61 72 52 30 44 166 113 0 0 22 82 91 51 102 4 26 54 22 10 13 4 1 1 16 244 534 572 783 993 1157 1337 1623 1977 2242 2277 2253 2208 2171 2114 2042 1994 1979 2001 2051 2115 2191 2209 1960 1632 1310 991 799 711 531 580 640 631 358 216 296 460 449 432 385 209 2 6 38 107 147
11 14 9 48 10 23 25 32 36 54 56 29 8 47 32 33 56 42 35 39 35 27 107 130 137 178 196 148 32 16 28 16 9 4 0 0 0 0 0 0 0 51 174 617 1007 1301 1455 1714 1880 2059 2275 2464 2466 2370 2311 2298 2260 2250 2213 2201 2237 2216 1955 1538 1151 1100 1122 835 594 570 675 550 209 142 249 314 364 462 472 402 40 8 21 83 102 159
15 31 39 34 24 36 36 30 38 30 126 201 22 26 72 30 18 17 15 6 7 24 40 177 210 215 230 208 126 72 55 50 9 39 0 0 0 0 0 0 7 26 54 151 437 1273 1662 1890 1998 2025 2110 2318 2532 2550 2432 2385 2322 2348 2360 2280 2286 2289 2239 2081 1688 1013 928 688 505 562 448 550 531 424 106 448 462 412 302 47 32 46 74 243 303 370
27 29 32 35 21 21 40 37 37 81 168 16 37 35 66 60 34 18 25 46 29 22 61 35 22 107 194 203 182 83 133 5 0 0 0 0 0 0 0 0 50 112 112 160 122 226 1290 1992 2146 2096 2102 2118 2275 2442 2472 2477 2429 2346 2280 2281 2249 2268 1894 1520 1304 795 576 628 423 175 266 392 341 396 100 81 232 142 168 159 140 169 251 416 511 571
37 23 181 13 25 162 35 40 26 7 14 139 25 9 1 5 6 46 193 41 32 34 444 14 18 26 6 30 41 44 18 110 15 27 4 2 1 0 0 2 4 114 252 378 986 2842 2577 2568 2334 2239 2276 2246 2223 2201 2260 2274 2287 2262 2245 2247 2208 2063 1854 1289 667 624 570 410 329 143 226 278 309 277 209 290 342 236 324 360 424 472 512 539 586 602
79 18 20 66 26 21 13 10 23 14 39 93 149 63 73 69 18 26 20 155 110 18 45 196 10 29 30 25 18 21 30 31 34 13 0 6 10 65 404 566 1012 1034 1184 2219 3129 3395 3579 3224 2625 2466 2393 2401 2308 2234 2172 2145 2138 2190 2240 2141 1950 1904 1915 1276 722 624 498 410 455 395 110 233 358 421 463 519 522 486 523 571 630 658 649 651 649 658
69 47 28 29 17 7 1 2 0 0 246 236 217 177 147 182 180 58 28 92 40 156 264 156 27 34 38 41 28 22 19 21 30 8 406 654 598 931 1491 1886 1885 1994 2201 2474 2986 3406 3360 3163 2848 2823 2581 2494 2442 2408 2351 2268 2166 2183 2158 1922 1725 1707 1779 1548 1196 1001 878 645 538 504 450 373 523 572 624 708 738 726 696 726 754 758 721 715 738 736
38 66 32 38 27 23 16 14 12 128 443 263 253 154 253 127 61 10 31 364 329 451 267 37 58 41 48 37 25 128 12 110 155 348 635 1175 1310 1472 1689 1798 1922 2121 2513 2996 3408 3464 3248 3067 2896 2836 2770 2715 2690 2683 2697 2683 2699 2657 1708 1409 1375 1447 1518 1406 1158 1101 989 787 651 531 588 751 764 752 782 878 892 839 722 720 765 782 739 717 718 716
25 23 29 20 11 7 17 14 21 215 313 270 202 286 197 46 47 288 303 475 551 504 465 390 368 379 320 69 70 332 359 403 474 571 660 672 800 1265 1736 2017 2027 2279 2795 3078 3304 3367 3269 3182 3169 3105 2948 2873 2834 2827 2831 2671 1819 1457 1353 1152 1266 1431 1514 1435 1383 1276 1088 898 765 843 1027 1108 1133 1139 1198 1156 1109 1116 853 690 738 807 827 776 743 706
99 14 22 192 146 92 16 14 8 4 127 295 306 296 477 310 568 380 496 509 479 293 286 454 400 171 133 129 116 94 72 384 549 710 752 670 696 930 1364 1683 1687 1897 2792 3020 3134 3178 3188 3200 3116 3035 2856 2651 2774 2892 2857 2426 1531 900 1017 905 1256 2015 1764 1658 1659 1580 1328 1091 933 1184 1308 1414 1518 1589 1568 1492 1350 1140 1089 999 962 827 767 636 590 561
110 78 43 308 367 27 30 20 56 332 288 351 257 421 661 710 656 719 390 80 121 144 129 233 155 204 166 154 149 116 83 585 626 654 774 883 1249 1495 1576 1930 2088 2178 2491 2841 2847 3014 2870 2888 2976 2998 2965 2885 2820 2850 2717 1977 1157 908 629 545 1210 1646 1802 1714 1653 1565 1391 1209 1105 1340 1535 1685 1750 1696 1691 1592 1349 1179 941 909 1009 948 798 725 591 482
122 167 0 211 371 363 302 135 68 231 388 388 477 573 573 523 376 315 107 68 57 85 132 136 122 522 684 622 690 805 775 753 933 1146 1429 1736 1554 1507 1607 1556 1803 1994 2142 2530 2744 2854 2792 2744 2822 2945 2933 2898 2811 2607 2173 1487 1068 785 996 1396 1599 1710 1707 1587 1474 1399 1250 1064 1254 1469 1682 1779 1763 1690 1659 1618 1439 1292 1121 1055 954 861 646 635 594 475
424 544 332 176 138 183 249 219 301 364 364 468 485 566 558 495 441 354 74 129 38 24 21 29 96 210 704 826 877 1076 1047 950 1167 1387 1641 1720 1573 1572 1576 1499 1495 1686 1920 2146 2356 2599 2754 2776 2824 2883 2825 2599 2458 2212 1592 1224 992 948 1180 1454 1638 1543 1444 1307 1084 939 890 1256 1381 1561 1756 1736 1568 1444 1432 1428 1367 1202 1194 1053 840 729 750 662 686 678
576 586 482 412 302 147 84 272 380 387 402 469 581 555 591 549 627 580 540 442 397 298 28 56 1 2 33 884 1198 1235 1326 1428 1229 1292 1381 1521 1478 1416 1371 1229 1184 1235 1448 1838 2126 2395 2656 2703 2694 2526 2042 1695 1527 1434 1281 1117 1042 1068 868 1036 1164 1102 923 718 941 1260 1364 1401 1594 1657 1606 1500 1558 1608 1588 1549 1484 1371 1176 1058 1021 880 819 792 825 506
401 422 333 342 330 203 265 245 312 296 341 436 433 475 541 525 503 490 514 577 468 308 36 70 65 0 0 42 1169 1301 1256 1436 1380 1313 1283 1388 1489 1547 1308 1207 1138 1150 1114 1358 1736 2083 2270 2267 2184 1896 1397 1195 1048 1148 1139 1147 843 773 660 779 1204 1337 1240 1326 1513 1656 1535 1690 1861 1859 1795 1766 1669 1580 1470 1355 1286 1252 1250 1300 1277 990 722 446 69 0
76 1106 409 531 438 498 381 401 363 290 348 383 433 505 572 248 43 29 34 109 86 65 17 1 7 29 25 17 39 1278 1212 1380 1298 1310 1252 1212 1373 1375 1351 1265 1254 1216 1215 1170 1260 1486 1759 1801 1674 1322 1029 1048 1067 1063 1032 862 1352 1392 1135 979 1186 1381 1338 1362 1291 1482 1678 1967 1788 1733 1649 1621 1595 1563 1634 1646 1581 1508 1319 1060 707 174 0 0 0 0
68 42 283 334 363 343 335 292 500 226 57 115 98 70 40 40 34 41 44 41 24 24 15 1 6 15 46 54 15 155 1140 1323 1220 965 1032 1063 1090 1339 1402 1217 1147 1118 1084 1077 1108 1268 1367 1390 1318 1187 1031 933 927 977 1078 1104 1114 1116 1000 1105 938 906 833 1148 1332 1850 1675 1655 1653 1686 1874 1936 1840 1676 1412 1161 980 812 684 547 381 395 281 114 0 0
372 89 40 26 122 253 254 253 328 203 211 185 85 119 34 44 27 26 9 0 0 0 0 1 0 2 0 0 0 0 18 610 1215 1218 1171 1155 1092 1365 1535 1257 1124 1060 1065 1025 1111 1185 1235 1184 1163 1102 959 972 963 1033 1286 1391 1280 1211 1087 1011 972 1162 1435 1911 2172 2153 2088 2114 2130 2106 1965 1739 1393 1088 951 874 830 753 662 547 414 346 271 0 0 0
Wind_Speed
nan nan nan nan nan nan nan nan nan nan nan nan nan nan nan nan nan nan nan nan nan nan nan nan nan nan 24 22 nan 17 18 18 18 13 14 14 14 14 13 14 14 12 11 8 9 8 6 7 7 5 5 4 4 5 6 6 5 6 6 6 7 7 8 8 8 8 9 8 8 7 10 11 11 10 10 9 8 8 10 11 13 14 14 13 12 12
nan nan nan nan nan nan nan nan nan nan nan nan nan nan nan nan nan nan nan nan nan nan nan nan nan nan nan nan nan 20 22 21 21 18 16 17 17 15 15 15 15 13 8 11 7 9 7 6 6 5 4 4 5 4 5 6 5 4 4 6 6 6 8 9 10 10 10 9 11 11 12 10 12 12 12 12 11 12 10 9 9 10 10 11 11 12
nan nan nan nan nan nan nan nan nan nan nan nan nan nan nan nan nan nan nan nan nan nan nan nan nan nan nan nan nan 27 24 19 21 21 21 19 18 16 16 17 15 13 13 14 12 12 10 9 8 5 4 4 7 6 6 4 4 4 4 5 5 6 8 9 10 10 10 9 10 10 10 12 11 10 12 13 11 9 9 10 12 13 14 15 15 14
nan nan nan nan nan nan nan nan nan nan nan nan nan nan nan nan nan nan nan nan nan nan nan nan nan nan nan nan nan 31 25 16 17 19 21 21 20 19 20 20 18 17 16 17 16 15 14 12 9 7 6 5 3 4 3 4 6 4 5 5 5 6 7 8 9 10 10 11 11 11 13 13 13 11 12 11 9 12 nan nan nan 12 14 15 16 16
nan nan nan nan nan nan nan nan nan nan nan nan nan nan nan nan nan nan nan nan nan nan nan nan nan nan nan nan nan nan nan nan 16 17 18 18 20 21 19 19 21 22 19 17 16 16 16 14 12 10 8 6 5 4 4 4 4 3 6 6 8 7 8 9 10 11 11 12 12 12 10 10 10 10 10 nan nan 12 14 nan nan 14 15 16 16 17
nan nan nan nan nan nan nan nan nan nan nan nan nan nan nan nan nan nan nan nan nan nan nan nan nan nan nan nan nan nan nan nan nan 20 18 17 18 17 17 18 18 20 20 19 17 17 18 17 14 11 10 9 6 5 4 4 4 5 5 7 7 8 9 10 12 14 14 15 16 15 16 14 13 14 14 nan nan nan nan nan nan 15 17 19 19 19
nan nan nan nan nan nan nan nan nan nan nan nan nan nan nan nan nan nan nan nan nan nan nan nan nan nan nan nan nan 26 nan nan nan nan 21 19 17 17 18 16 17 19 18 17 18 17 17 16 16 15 13 12 10 7 7 6 6 6 7 8 10 11 11 12 14 16 16 16 16 18 17 16 17 nan nan nan nan nan nan nan nan nan 19 nan nan 18
nan nan nan nan nan nan nan nan nan nan nan nan nan nan nan nan nan nan nan nan nan nan nan nan nan nan nan nan nan 25 nan nan nan nan nan 19 17 17 16 18 18 18 20 19 20 19 19 18 19 18 16 15 14 12 10 9 8 9 10 10 11 12 13 13 15 16 17 18 18 18 18 17 17 nan 18 17 nan 18 21 nan nan nan 20 19 nan 21
nan nan nan nan nan nan nan nan nan nan nan nan nan nan nan nan nan nan nan nan nan nan nan nan nan nan nan nan nan nan nan nan nan nan nan 21 20 19 18 19 20 21 22 21 19 20 21 20 18 17 17 16 16 15 13 12 11 10 11 12 13 14 15 15 17 17 17 19 20 21 21 20 nan nan nan 19 19 20 21 nan nan 20 20 21 20 nan
nan nan nan nan nan nan nan nan nan nan nan nan nan nan nan nan nan nan nan nan nan nan nan nan nan nan nan nan nan nan nan nan nan nan nan nan nan 23 20 19 22 20 20 21 22 22 20 20 19 18 18 17 17 17 16 15 15 13 14 14 15 15 16 17 18 19 19 20 21 23 23 nan 22 22 22 nan nan nan nan nan nan 22 24 nan nan nan
nan nan nan nan nan nan nan nan nan nan nan nan nan nan nan nan nan nan nan nan nan nan nan nan nan nan nan nan nan nan nan nan nan nan nan nan nan 27 24 23 23 21 19 20 22 21 19 19 20 20 20 19 19 19 20 20 20 18 17 17 18 18 19 20 21 22 22 21 23 24 25 nan nan nan nan nan nan nan 22 nan 23 26 nan nan nan 24
nan nan nan nan nan nan nan nan nan nan nan nan nan nan nan nan nan nan nan nan nan nan nan nan nan nan nan nan nan nan nan nan nan nan nan nan 30 30 27 23 24 23 19 18 20 17 16 16 16 17 19 21 22 23 23 22 23 23 22 22 22 21 22 23 24 24 24 26 25 nan nan nan nan nan nan nan nan nan nan nan 26 nan nan 26 25 26
nan nan nan nan nan nan nan nan nan nan nan nan nan nan nan nan nan nan nan nan nan nan nan nan nan nan nan nan nan nan nan nan nan nan nan nan 30 29 nan 25 24 25 20 17 16 15 16 18 19 18 19 21 23 24 25 25 24 25 26 26 27 25 25 25 27 27 27 28 27 nan nan nan nan nan nan nan nan nan nan nan nan nan nan nan nan nan
nan nan nan nan nan nan nan nan nan nan nan nan nan nan nan nan nan nan nan nan nan nan nan nan nan nan nan nan nan nan nan nan nan nan nan nan nan 30 nan 26 25 27 24 18 17 16 19 21 21 22 23 22 22 24 25 25 26 26 27 28 28 28 27 27 27 28 28 27 26 nan nan nan nan nan nan nan nan nan nan nan nan nan nan nan nan nan
nan nan nan nan nan nan nan nan nan nan nan nan nan nan nan nan nan nan nan nan nan nan nan nan nan nan nan nan nan nan nan nan nan nan nan nan nan nan nan 32 30 29 25 21 19 19 20 21 23 24 23 20 21 24 25 26 27 28 28 29 28 29 27 27 26 26 26 25 nan nan nan nan nan nan nan nan nan nan nan nan nan nan nan nan nan nan
nan nan nan nan nan nan nan nan nan nan nan nan nan nan nan nan nan nan nan nan nan nan nan nan nan nan nan nan nan nan nan nan nan nan nan nan nan nan nan 30 28 27 27 23 20 17 17 19 21 21 20 19 19 23 25 27 28 28 28 29 28 29 28 27 26 24 24 24 nan nan nan nan nan 24 nan nan 25 nan nan nan nan nan nan nan nan nan
nan nan nan nan nan nan nan nan nan nan nan nan nan nan nan nan nan nan nan nan nan nan nan nan nan nan nan nan nan nan nan nan nan nan nan nan nan nan nan 29 27 27 27 25 23 21 20 17 18 19 19 18 19 22 24 26 27 29 29 28 28 27 27 28 27 25 23 nan nan nan nan nan nan nan nan nan nan nan nan nan nan nan nan nan nan nan
nan nan nan nan nan nan nan nan nan nan nan nan nan nan nan nan nan nan nan nan nan nan nan nan nan nan nan nan nan nan nan nan nan nan nan nan nan nan nan nan 28 28 30 31 29 29 30 27 24 19 17 20 21 23 23 26 28 29 29 30 30 29 29 27 27 26 25 25 24 nan nan nan nan nan nan nan nan nan nan nan nan nan nan nan nan 30
nan nan nan nan nan nan nan nan nan nan nan nan nan nan nan nan nan nan nan nan nan nan nan nan nan nan nan nan nan nan nan nan nan nan nan nan nan nan nan nan 29 30 30 29 27 28 30 28 24 21 20 21 23 23 24 26 28 28 29 30 30 30 29 29 28 28 27 26 25 nan nan nan nan nan nan nan nan nan nan nan nan nan nan nan nan 30
nan nan nan nan nan nan nan nan nan nan nan nan nan nan nan nan nan nan nan nan nan nan nan nan nan nan nan nan nan nan nan nan nan nan nan nan nan nan nan nan nan 30 32 32 29 29 31 31 30 26 23 23 22 22 22 25 26 28 31 33 31 28 27 28 28 29 30 29 nan nan nan nan nan nan nan nan nan nan nan nan nan nan nan nan nan nan
nan nan nan nan nan nan nan nan nan nan nan nan nan nan nan nan nan nan nan nan nan nan nan nan nan nan nan nan nan nan nan nan nan 27 25 nan nan nan nan nan 33 34 35 33 30 27 27 29 29 27 24 23 22 21 22 23 26 28 29 32 34 34 31 30 31 31 30 30 nan nan nan nan nan nan nan nan nan nan nan nan nan nan nan nan nan nan
nan nan nan nan nan nan nan nan nan nan nan nan nan nan nan nan nan nan nan nan nan nan nan nan nan nan nan nan nan nan nan nan nan nan 27 nan nan nan nan 35 36 35 36 35 30 28 26 26 27 26 23 20 20 20 21 22 23 26 29 32 35 35 34 33 32 32 33 31 nan nan nan nan nan nan nan nan nan nan nan nan nan nan nan nan nan nan
nan nan nan nan nan nan nan nan nan nan nan nan nan nan nan nan nan nan nan nan nan nan nan nan nan nan nan nan nan nan nan nan nan nan nan nan nan nan nan nan 37 38 37 35 nan 31 29 28 27 26 26 24 23 23 23 23 25 28 31 33 34 36 36 34 32 32 33 32 31 nan nan nan nan nan nan nan nan nan nan nan nan nan nan nan nan nan
nan nan nan nan nan nan nan nan nan nan nan nan nan nan nan nan nan nan nan nan nan nan nan nan nan nan nan nan nan nan nan nan nan nan nan nan nan 31 33 34 35 nan 35 37 37 33 29 25 23 22 21 22 22 22 24 25 27 30 32 34 35 35 38 37 35 33 33 32 31 nan nan nan 27 nan nan nan nan nan nan nan nan nan nan nan nan nan
nan nan nan nan nan nan nan nan nan nan nan nan nan nan nan nan nan nan nan nan nan nan nan nan nan nan nan nan nan nan nan nan nan nan nan nan 32 34 34 nan nan 34 35 35 34 31 26 21 20 20 23 24 24 25 26 27 29 32 34 34 34 35 39 37 37 35 32 nan nan nan nan nan nan nan nan nan nan nan nan nan nan nan nan nan nan nan
nan nan nan nan nan nan nan nan nan nan nan nan nan nan nan nan nan nan nan nan nan nan nan nan nan nan nan nan nan nan nan nan nan nan nan nan 37 36 35 33 32 33 35 34 31 30 26 22 21 22 24 25 26 27 28 29 31 33 35 35 35 37 37 36 39 40 31 27 30 nan nan nan nan nan nan nan nan 28 28 nan nan nan nan nan nan nan
nan nan nan nan nan nan nan nan nan nan nan nan nan nan nan nan nan nan nan nan nan nan nan nan nan nan nan nan nan nan nan nan nan nan nan 36 36 37 37 35 35 36 36 34 32 31 27 24 25 26 27 27 28 28 29 32 34 35 37 37 37 37 38 39 45 41 30 27 28 29 30 nan 27 26 nan 27 nan nan nan nan nan nan nan nan nan nan
nan nan nan nan nan nan nan nan nan nan nan nan nan nan nan nan nan nan nan nan nan nan nan nan nan nan nan nan nan nan nan nan nan nan nan nan nan nan nan 38 39 38 34 30 27 28 30 29 27 27 28 29 29 31 32 33 36 38 39 40 39 40 40 41 45 39 30 28 27 30 33 31 28 27 28 28 nan nan nan nan nan nan nan nan nan nan
nan nan nan nan nan nan nan nan nan nan nan nan nan nan nan nan nan nan nan nan nan nan nan nan nan nan nan nan nan nan nan nan nan nan nan nan nan nan nan 43 42 40 35 30 29 30 33 33 30 28 29 30 32 35 36 36 37 36 36 38 41 44 45 46 43 36 31 31 34 35 37 36 31 28 27 28 nan nan nan nan nan nan nan nan nan nan
nan nan nan nan nan nan nan nan nan nan nan nan nan nan nan nan nan nan nan nan nan nan nan nan nan nan nan nan nan nan nan nan nan nan nan nan nan nan nan 44 43 40 38 35 34 34 35 35 34 33 33 32 33 36 39 40 39 40 40 40 40 43 45 42 35 34 31 34 38 39 40 40 34 29 28 29 28 nan nan nan nan nan nan nan nan nan
nan nan nan nan nan nan nan nan nan nan nan nan nan nan nan nan nan nan nan nan nan nan nan nan nan nan nan nan nan nan nan nan nan nan nan nan nan nan 45 43 43 43 40 37 36 36 34 32 33 34 35 36 35 37 41 43 43 42 45 46 45 42 39 37 35 37 40 41 41 42 41 39 34 32 30 29 nan nan nan nan nan nan nan nan nan nan
nan nan nan nan nan nan nan nan nan nan nan nan nan nan nan nan nan nan nan nan nan nan nan nan nan nan nan nan nan nan nan nan nan nan nan nan nan nan nan 44 44 42 39 35 36 38 35 32 31 32 36 39 39 40 42 45 47 46 44 43 42 40 36 31 31 34 37 41 42 42 40 38 38 nan nan nan nan nan nan nan nan nan nan nan nan nan
nan nan nan nan nan nan nan nan nan nan nan nan nan nan nan nan nan nan nan nan nan nan nan nan nan nan nan nan nan nan nan nan nan nan nan nan nan nan nan 46 44 41 37 35 36 39 39 36 33 35 37 39 40 41 43 47 46 44 44 44 44 43 39 34 32 33 35 37 40 42 40 40 42 42 32 24 24 28 31 nan nan nan nan nan nan nan
nan nan nan nan nan nan nan nan nan nan nan nan nan nan nan nan nan nan nan nan nan 40 35 nan nan nan nan nan nan 33 nan nan nan nan nan nan nan nan nan nan 48 42 39 39 40 43 41 38 36 38 40 40 40 41 46 48 47 44 45 45 45 45 43 38 36 35 33 37 42 42 40 40 38 32 26 25 27 29 32 36 37 nan nan nan 38 39
nan nan nan nan nan nan nan nan nan nan nan nan nan nan nan nan nan nan nan nan nan nan 48 45 44 46 41 40 nan nan nan nan nan nan nan nan nan nan nan nan nan nan 45 45 45 45 43 41 41 44 43 43 45 48 50 47 45 45 45 47 51 51 48 43 42 39 39 40 39 36 34 35 31 25 22 25 29 29 31 35 nan nan nan nan 39 38
nan nan nan nan nan nan nan nan nan nan 45 48 nan nan nan nan nan nan nan nan nan nan nan 46 44 46 47 46 44 nan nan nan nan nan nan nan nan nan nan nan nan nan nan 46 47 44 43 43 45 45 44 47 49 50 51 50 49 49 47 48 50 48 48 48 46 43 43 40 33 30 28 27 24 23 27 32 30 28 31 nan nan nan nan 41 40 37
nan nan nan nan nan nan nan nan nan nan 46 nan nan nan nan nan nan nan nan nan nan nan nan nan nan 44 45 44 43 nan 43 nan nan nan nan nan nan nan nan nan nan 45 45 43 45 44 42 43 45 46 48 49 50 51 50 51 51 50 48 47 47 49 48 44 38 34 34 30 29 26 23 21 24 27 32 nan 30 29 32 35 36 39 42 43 42 41
nan nan 41 nan nan 49 nan nan nan nan nan 45 nan nan nan nan nan nan 49 nan nan nan 42 nan nan nan nan nan nan nan nan 51 nan nan nan nan nan nan nan nan nan 44 44 46 43 42 44 47 51 52 53 52 50 49 50 53 54 54 53 53 53 53 50 45 41 37 37 36 34 28 26 26 29 31 33 34 33 32 33 36 38 40 43 45 45 44
nan nan nan nan nan nan nan nan nan nan nan nan 49 nan nan nan nan nan nan 48 42 nan nan 45 nan nan nan nan nan nan nan nan nan nan nan nan nan nan 51 46 46 46 48 50 49 47 49 50 51 50 50 50 50 48 51 55 56 54 56 55 52 50 49 45 43 42 41 39 36 36 35 33 31 32 35 35 34 34 36 38 38 38 42 45 46 48
nan nan nan nan nan nan nan nan nan nan 55 54 53 53 51 47 49 nan nan nan nan 42 46 49 nan nan nan nan nan nan nan nan nan nan 42 45 49 49 51 50 51 53 54 52 49 47 47 45 45 44 44 45 47 50 54 56 55 58 61 58 54 51 47 44 43 41 38 37 37 35 35 33 32 34 36 35 34 36 36 36 37 41 46 46 47 48
nan nan nan nan nan nan nan nan nan 55 56 61 66 61 58 55 nan nan nan 46 42 42 46 nan nan nan nan nan nan 58 nan 49 46 44 45 49 56 55 53 53 55 59 60 57 50 44 42 41 44 44 43 45 49 50 52 53 51 55 56 56 52 48 45 43 43 41 39 38 37 36 34 34 35 36 37 37 38 40 40 41 45 48 49 49 49 51
nan nan nan nan nan nan nan nan nan 56 56 60 65 63 60 nan nan 54 51 52 49 50 49 54 59 58 60 nan nan 60 57 55 54 53 56 59 59 57 59 60 62 61 57 51 46 44 44 43 42 45 48 50 52 54 57 58 52 45 42 39 40 41 43 44 43 40 37 36 36 36 35 35 35 36 37 38 40 40 42 42 45 48 49 50 50 51
nan nan nan 53 51 nan nan nan nan nan 57 67 61 66 69 60 52 52 57 56 54 57 58 56 56 55 59 61 60 nan nan 58 59 62 60 59 59 59 60 62 61 56 49 45 43 43 46 43 43 46 50 51 51 51 53 57 58 51 35 21 19 30 36 38 38 33 31 33 35 36 37 37 38 39 37 37 40 43 42 43 47 48 50 50 48 48
47 nan nan 52 53 nan nan nan nan 51 49 54 63 61 59 58 55 60 60 nan 58 60 63 62 57 52 53 57 56 57 nan 55 54 56 57 55 54 55 55 55 52 47 44 41 42 41 42 43 42 45 45 47 47 47 47 50 54 50 36 21 22 29 30 29 28 26 26 29 32 35 38 39 39 38 37 40 43 44 47 47 48 49 50 51 51 50
47 43 nan 44 48 53 52 51 nan 44 42 44 50 50 53 57 60 59 61 nan nan nan 55 60 53 48 46 49 54 55 57 51 48 47 50 48 52 53 50 45 44 43 42 43 42 40 40 44 42 41 41 41 43 44 46 45 49 53 46 36 39 40 36 27 24 24 26 30 33 37 39 40 39 39 40 41 45 47 49 48 49 50 50 51 51 51
45 45 44 51 49 51 53 49 44 45 44 44 45 46 49 50 52 55 nan 58 nan nan nan nan nan 46 46 47 53 54 54 47 45 42 43 46 50 46 43 41 41 42 42 41 40 39 39 39 39 39 40 39 41 43 43 43 43 51 50 43 43 46 38 25 23 26 29 33 35 36 37 39 39 39 41 44 46 49 49 51 51 51 51 51 50 50
41 42 45 49 41 47 nan 46 49 49 47 46 44 45 49 47 46 47 50 50 49 52 nan nan nan nan nan 48 50 48 47 42 40 37 38 40 40 38 36 37 37 37 36 37 36 38 37 37 39 38 38 39 38 38 38 40 38 45 46 42 42 43 37 29 28 29 31 38 40 36 35 37 37 39 42 45 48 49 49 49 50 50 49 50 50 50
42 40 49 43 45 47 44 43 44 43 44 47 47 47 47 45 44 43 43 45 47 50 nan nan nan nan nan nan 41 45 42 37 36 34 34 35 35 35 35 35 35 35 35 36 36 37 38 37 39 40 39 38 37 37 36 35 37 43 45 37 33 34 36 35 34 30 35 50 50 38 33 35 39 43 46 48 50 50 48 46 47 49 49 50 nan nan
nan 41 41 36 42 40 42 42 44 48 51 49 47 42 39 39 nan nan nan 46 nan nan nan nan nan nan nan nan nan 38 38 35 35 36 36 34 34 34 34 34 34 35 35 37 37 38 39 39 40 40 40 38 37 38 37 37 42 43 39 35 34 35 35 32 31 36 50 60 48 35 32 37 42 46 49 51 51 48 46 44 44 48 nan nan nan nan
nan nan 41 44 46 38 37 35 39 46 nan 38 nan nan nan nan nan nan nan nan nan nan nan nan nan nan nan nan nan 35 34 32 34 36 35 33 32 31 32 32 33 32 31 33 36 37 38 39 42 42 41 38 39 41 40 40 43 47 41 32 34 41 43 39 38 53 63 54 39 33 37 40 45 48 50 51 52 52 50 50 49 45 49 49 nan nan
42 nan nan nan 40 34 36 43 41 42 40 34 nan 35 nan nan nan nan nan nan nan nan nan nan nan nan nan nan nan nan nan 27 26 31 32 31 30 31 31 32 32 32 32 34 38 38 39 41 42 43 42 41 41 44 43 43 44 46 45 38 42 47 49 50 53 61 59 46 36 37 41 43 47 48 49 50 51 50 51 51 48 50 50 nan nan nan
Wind_Direction
nan nan nan nan nan nan nan nan nan nan nan nan nan nan nan nan nan nan nan nan nan nan nan nan nan nan 345 340 nan 342 341 337 337 337 343 339 340 345 345 347 346 355 2 345 346 333 333 327 323 328 338 351 353 358 355 352 359 346 338 337 348 354 352 354 358 1 358 3 13 14 15 17 17 16 15 20 20 14 12 360 355 355 356 355 351 347
nan nan nan nan nan nan nan nan nan nan nan nan nan nan nan nan nan nan nan nan nan nan nan nan nan nan nan nan nan 336 337 339 337 332 339 341 341 341 343 345 344 345 316 319 330 326 320 310 311 316 327 333 338 24 3 356 6 1 342 344 345 350 354 358 1 4 5 9 11 6 14 12 14 17 17 26 28 25 18 355 348 345 345 344 343 343
nan nan nan nan nan nan nan nan nan nan nan nan nan nan nan nan nan nan nan nan nan nan nan nan nan nan nan nan nan 339 337 334 332 331 334 335 340 338 339 340 337 325 322 324 333 329 329 321 316 315 334 0 353 5 10 5 357 4 358 354 345 351 349 359 358 350 360 2 357 353 2 5 11 14 9 10 14 9 360 351 348 349 349 344 343 342
nan nan nan nan nan nan nan nan nan nan nan nan nan nan nan nan nan nan nan nan nan nan nan nan nan nan nan nan nan 345 337 329 334 332 327 329 336 340 341 336 333 334 324 328 329 332 331 330 324 315 326 344 345 353 357 354 353 355 355 346 341 349 346 349 351 344 346 343 343 344 349 359 351 356 357 344 340 336 nan nan nan 328 327 330 331 332
nan nan nan nan nan nan nan nan nan nan nan nan nan nan nan nan nan nan nan nan nan nan nan nan nan nan nan nan nan nan nan nan 324 325 324 329 335 342 340 333 331 334 331 325 323 324 326 328 331 327 326 316 328 336 336 339 344 337 342 337 337 338 340 336 334 329 324 321 325 329 327 328 336 332 328 nan nan 325 330 nan nan 324 320 319 321 323
nan nan nan nan nan nan nan nan nan nan nan nan nan nan nan nan nan nan nan nan nan nan nan nan nan nan nan nan nan nan nan nan nan 320 332 328 325 322 327 337 335 333 330 327 326 326 327 328 323 320 318 317 314 320 318 316 319 307 316 315 317 317 318 321 320 318 318 324 327 327 330 331 325 330 327 nan nan nan nan nan nan 323 323 324 323 326
nan nan nan nan nan nan nan nan nan nan nan nan nan nan nan nan nan nan nan nan nan nan nan nan nan nan nan nan nan 331 nan nan nan nan 335 328 325 326 325 324 330 330 328 325 322 318 317 318 318 323 323 322 319 319 301 295 299 302 305 304 306 309 308 309 310 313 314 320 324 327 328 326 327 nan nan nan nan nan nan nan nan nan 328 nan nan 320
nan nan nan nan nan nan nan nan nan nan nan nan nan nan nan nan nan nan nan nan nan nan nan nan nan nan nan nan nan 328 nan nan nan nan nan 335 340 339 328 323 324 326 325 324 326 324 320 318 321 325 325 320 322 311 301 302 294 302 303 297 300 297 302 302 302 310 315 318 318 317 317 317 319 nan 324 325 nan 323 320 nan nan nan 323 323 nan 319
nan nan nan nan nan nan nan nan nan nan nan nan nan nan nan nan nan nan nan nan nan nan nan nan nan nan nan nan nan nan nan nan nan nan nan 349 350 347 340 332 327 325 323 322 321 325 323 321 320 314 315 313 308 302 306 303 299 296 293 292 288 294 296 298 303 307 312 313 314 313 311 311 nan nan nan 312 309 308 309 nan nan 312 314 318 317 nan
nan nan nan nan nan nan nan nan nan nan nan nan nan nan nan nan nan nan nan nan nan nan nan nan nan nan nan nan nan nan nan nan nan nan nan nan nan 346 342 339 333 323 315 317 320 321 323 319 316 314 307 303 302 299 301 298 291 289 284 288 291 294 293 296 301 304 307 308 306 306 307 nan 309 304 302 nan nan nan nan nan nan 309 314 nan nan nan
nan nan nan nan nan nan nan nan nan nan nan nan nan nan nan nan nan nan nan nan nan nan nan nan nan nan nan nan nan nan nan nan nan nan nan nan nan 346 342 341 334 325 317 315 315 314 319 321 319 310 310 306 295 294 296 295 294 290 289 290 293 295 290 294 301 301 305 302 302 306 307 nan nan nan nan nan nan nan 305 nan 308 310 nan nan nan 314
nan nan nan nan nan nan nan nan nan nan nan nan nan nan nan nan nan nan nan nan nan nan nan nan nan nan nan nan nan nan nan nan nan nan nan nan 348 343 339 346 347 335 320 315 315 315 312 308 311 309 309 303 302 296 296 296 295 295 293 291 293 289 292 293 296 298 301 300 301 nan nan nan nan nan nan nan nan nan nan nan 309 nan nan 307 309 308
nan nan nan nan nan nan nan nan nan nan nan nan nan nan nan nan nan nan nan nan nan nan nan nan nan nan nan nan nan nan nan nan nan nan nan nan 343 332 nan 351 354 346 335 321 320 314 308 312 314 315 313 306 306 304 304 304 302 300 298 297 295 295 293 295 294 297 298 299 301 nan nan nan nan nan nan nan nan nan nan nan nan nan nan nan nan nan
nan nan nan nan nan nan nan nan nan nan nan nan nan nan nan nan nan nan nan nan nan nan nan nan nan nan nan nan nan nan nan nan nan nan nan nan nan 320 nan 343 344 345 347 340 328 320 318 317 316 317 315 315 311 308 307 308 307 304 302 300 301 299 297 294 294 296 298 302 303 nan nan nan nan nan nan nan nan nan nan nan nan nan nan nan nan nan
nan nan nan nan nan nan nan nan nan nan nan nan nan nan nan nan nan nan nan nan nan nan nan nan nan nan nan nan nan nan nan nan nan nan nan nan nan nan nan 338 339 338 340 332 322 318 316 317 318 317 316 316 313 310 309 308 309 308 307 307 308 304 302 302 301 297 302 304 nan nan nan nan nan nan nan nan nan nan nan nan nan nan nan nan nan nan
nan nan nan nan nan nan nan nan nan nan nan nan nan nan nan nan nan nan nan nan nan nan nan nan nan nan nan nan nan nan nan nan nan nan nan nan nan nan nan 332 332 331 334 334 332 329 317 314 318 320 317 313 309 310 307 310 311 313 314 315 316 315 313 311 306 303 306 309 nan nan nan nan nan 302 nan nan 300 nan nan nan nan nan nan nan nan nan
nan nan nan nan nan nan nan nan nan nan nan nan nan nan nan nan nan nan nan nan nan nan nan nan nan nan nan nan nan nan nan nan nan nan nan nan nan nan nan 329 328 327 335 341 343 342 337 321 320 325 322 311 306 305 310 315 318 321 317 316 317 315 312 313 311 308 307 nan nan nan nan nan nan nan nan nan nan nan nan nan nan nan nan nan nan nan
nan nan nan nan nan nan nan nan nan nan nan nan nan nan nan nan nan nan nan nan nan nan nan nan nan nan nan nan nan nan nan nan nan nan nan nan nan nan nan nan 328 331 337 343 343 342 342 338 335 331 324 319 317 319 319 321 320 320 319 320 319 315 317 316 312 312 313 315 315 nan nan nan nan nan nan nan nan nan nan nan nan nan nan nan nan 317
nan nan nan nan nan nan nan nan nan nan nan nan nan nan nan nan nan nan nan nan nan nan nan nan nan nan nan nan nan nan nan nan nan nan nan nan nan nan nan nan 327 330 331 333 333 330 332 332 330 327 324 322 323 322 323 322 319 318 317 318 320 322 321 319 314 313 313 313 311 nan nan nan nan nan nan nan nan nan nan nan nan nan nan nan nan 320
nan nan nan nan nan nan nan nan nan nan nan nan nan nan nan nan nan nan nan nan nan nan nan nan nan nan nan nan nan nan nan nan nan nan nan nan nan nan nan nan nan 321 326 330 331 329 329 331 333 333 326 319 318 318 318 320 318 322 320 318 320 318 312 308 307 308 313 313 nan nan nan nan nan nan nan nan nan nan nan nan nan nan nan nan nan nan
nan nan nan nan nan nan nan nan nan nan nan nan nan nan nan nan nan nan nan nan nan nan nan nan nan nan nan nan nan nan nan nan nan 300 296 nan nan nan nan nan 317 322 323 329 334 330 328 329 331 334 332 326 320 317 315 317 324 324 317 318 318 318 316 313 310 308 310 309 nan nan nan nan nan nan nan nan nan nan nan nan nan nan nan nan nan nan
nan nan nan nan nan nan nan nan nan nan nan nan nan nan nan nan nan nan nan nan nan nan nan nan nan nan nan nan nan nan nan nan nan nan 290 nan nan nan nan 312 315 321 325 327 332 334 331 328 329 330 328 318 313 314 318 320 318 316 319 319 317 314 313 311 308 308 308 309 nan nan nan nan nan nan nan nan nan nan nan nan nan nan nan nan nan nan
nan nan nan nan nan nan nan nan nan nan nan nan nan nan nan nan nan nan nan nan nan nan nan nan nan nan nan nan nan nan nan nan nan nan nan nan nan nan nan nan 319 323 321 325 nan 328 330 329 325 324 324 322 325 325 324 320 321 324 323 317 314 314 309 305 306 305 304 305 303 nan nan nan nan nan nan nan nan nan nan nan nan nan nan nan nan nan
nan nan nan nan nan nan nan nan nan nan nan nan nan nan nan nan nan nan nan nan nan nan nan nan nan nan nan nan nan nan nan nan nan nan nan nan nan 302 304 308 315 nan 322 324 322 322 321 321 321 319 323 326 325 324 325 325 325 322 319 317 312 311 305 306 307 304 299 298 297 nan nan nan 298 nan nan nan nan nan nan nan nan nan nan nan nan nan
nan nan nan nan nan nan nan nan nan nan nan nan nan nan nan nan nan nan nan nan nan nan nan nan nan nan nan nan nan nan nan nan nan nan nan nan 294 299 305 nan nan 318 317 318 321 321 316 313 315 324 330 332 331 330 330 328 324 321 321 316 313 308 307 308 304 298 291 nan nan nan nan nan nan nan nan nan nan nan nan nan nan nan nan nan nan nan
nan nan nan nan nan nan nan nan nan nan nan nan nan nan nan nan nan nan nan nan nan nan nan nan nan nan nan nan nan nan nan nan nan nan nan nan 301 304 304 305 312 315 318 317 319 317 319 322 321 320 325 328 329 330 329 327 323 320 320 320 314 308 310 306 294 283 277 285 297 nan nan nan nan nan nan nan nan 314 312 nan nan nan nan nan nan nan
nan nan nan nan nan nan nan nan nan nan nan nan nan nan nan nan nan nan nan nan nan nan nan nan nan nan nan nan nan nan nan nan nan nan nan 297 298 302 303 305 310 314 313 314 315 319 319 315 321 325 327 328 331 331 330 327 322 319 321 320 314 311 309 299 290 292 294 294 300 302 302 nan 306 305 nan 301 nan nan nan nan nan nan nan nan nan nan
nan nan nan nan nan nan nan nan nan nan nan nan nan nan nan nan nan nan nan nan nan nan nan nan nan nan nan nan nan nan nan nan nan nan nan nan nan nan nan 306 311 313 314 316 314 316 320 325 325 325 326 327 330 332 331 325 321 322 323 321 316 308 303 291 288 290 290 296 305 304 301 300 301 297 294 294 nan nan nan nan nan nan nan nan nan nan
nan nan nan nan nan nan nan nan nan nan nan nan nan nan nan nan nan nan nan nan nan nan nan nan nan nan nan nan nan nan nan nan nan nan nan nan nan nan nan 305 311 316 322 326 326 322 318 314 316 319 321 327 330 330 328 319 317 319 317 313 312 306 292 282 288 298 303 309 307 298 293 288 287 289 291 296 nan nan nan nan nan nan nan nan nan nan
nan nan nan nan nan nan nan nan nan nan nan nan nan nan nan nan nan nan nan nan nan nan nan nan nan nan nan nan nan nan nan nan nan nan nan nan nan nan nan 306 311 314 315 318 319 319 313 309 309 314 317 320 324 325 320 316 316 320 315 306 297 286 276 282 292 294 301 308 301 290 286 287 289 293 292 288 292 nan nan nan nan nan nan nan nan nan
nan nan nan nan nan nan nan nan nan nan nan nan nan nan nan nan nan nan nan nan nan nan nan nan nan nan nan nan nan nan nan nan nan nan nan nan nan nan 299 303 305 306 309 312 313 317 315 310 311 312 314 318 320 319 316 316 313 303 300 305 310 313 307 301 300 295 299 301 295 289 292 295 292 284 283 282 nan nan nan nan nan nan nan nan nan nan
nan nan nan nan nan nan nan nan nan nan nan nan nan nan nan nan nan nan nan nan nan nan nan nan nan nan nan nan nan nan nan nan nan nan nan nan nan nan nan 297 297 300 302 305 311 315 312 307 305 309 315 317 316 314 309 305 303 308 310 308 308 310 310 305 295 291 293 297 295 295 296 289 282 nan nan nan nan nan nan nan nan nan nan nan nan nan
nan nan nan nan nan nan nan nan nan nan nan nan nan nan nan nan nan nan nan nan nan nan nan nan nan nan nan nan nan nan nan nan nan nan nan nan nan nan nan 292 291 293 297 304 312 316 311 306 305 308 310 310 309 308 304 302 307 309 308 309 310 306 307 299 289 291 293 295 296 295 295 288 284 283 284 289 304 310 309 nan nan nan nan nan nan nan
nan nan nan nan nan nan nan nan nan nan nan nan nan nan nan nan nan nan nan nan nan 236 240 nan nan nan nan nan nan 275 nan nan nan nan nan nan nan nan nan nan 289 293 299 304 310 312 309 302 300 304 307 308 308 305 301 307 309 310 308 306 298 292 283 288 295 299 301 297 298 299 291 287 295 297 301 309 310 305 304 305 306 nan nan nan 310 314
nan nan nan nan nan nan nan nan nan nan nan nan nan nan nan nan nan nan nan nan nan nan 237 233 240 246 243 242 nan nan nan nan nan nan nan nan nan nan nan nan nan nan 300 302 304 304 299 295 296 298 298 297 296 298 301 299 298 295 293 292 293 298 306 304 297 297 296 291 287 285 290 301 304 293 297 313 313 304 301 302 nan nan nan nan 313 315
nan nan nan nan nan nan nan nan nan nan 216 218 nan nan nan nan nan nan nan nan nan nan nan 242 235 241 249 253 258 nan nan nan nan nan nan nan nan nan nan nan nan nan nan 297 299 299 293 289 294 300 299 295 297 299 301 300 295 294 293 296 300 302 299 295 294 289 282 285 296 297 300 306 297 288 301 314 313 304 300 nan nan nan nan 309 310 310
nan nan nan nan nan nan nan nan nan nan 217 nan nan nan nan nan nan nan nan nan nan nan nan nan nan 252 248 252 259 nan 256 nan nan nan nan nan nan nan nan nan nan 289 292 296 297 296 290 286 290 293 292 296 298 297 295 293 293 293 290 287 283 279 274 275 274 270 280 298 294 292 299 312 306 301 306 nan 309 305 302 302 305 307 307 309 311 313
nan nan 204 nan nan 221 nan nan nan nan nan 217 nan nan nan nan nan nan 240 nan nan nan 232 nan nan nan nan nan nan nan nan 253 nan nan nan nan nan nan nan nan nan 288 290 290 290 288 284 281 285 290 293 294 293 293 293 295 296 296 294 293 294 295 294 293 291 293 298 299 303 310 319 318 310 305 307 308 311 311 305 303 306 310 310 313 317 320
nan nan nan nan nan nan nan nan nan nan nan nan 214 nan nan nan nan nan nan 230 230 nan nan 243 nan nan nan nan nan nan nan nan nan nan nan nan nan nan 274 277 281 284 285 284 286 286 283 285 290 291 290 292 294 295 295 294 294 292 291 295 296 293 291 292 292 293 299 306 312 316 316 310 307 304 304 307 308 304 305 309 311 309 309 313 315 314
nan nan nan nan nan nan nan nan nan nan 223 219 217 215 214 224 227 nan nan nan nan 226 230 239 nan nan nan nan nan nan nan nan nan nan 263 265 271 272 274 276 275 277 277 276 276 280 282 283 284 285 289 294 293 291 291 290 293 298 299 295 291 290 290 292 294 297 301 306 308 307 302 301 301 298 299 303 304 300 298 298 301 302 305 308 310 310
nan nan nan nan nan nan nan nan nan 219 218 215 211 211 214 222 nan nan nan 236 240 241 239 nan nan nan nan nan nan 257 nan 262 263 261 262 266 265 263 262 265 269 275 278 276 278 280 282 287 293 295 295 290 289 288 288 288 294 301 300 292 286 286 286 287 288 292 297 299 298 297 296 295 296 299 302 304 302 302 306 304 304 304 307 310 310 310
nan nan nan nan nan nan nan nan nan 226 226 219 212 214 217 nan nan 239 234 236 239 242 245 249 252 251 253 nan nan 259 259 257 258 258 260 263 266 268 268 267 270 274 274 271 277 283 283 285 286 283 283 287 288 289 290 290 294 301 292 277 276 280 281 283 284 288 292 291 293 294 295 295 294 297 299 299 302 307 303 301 304 307 309 308 309 310
nan nan nan 208 210 nan nan nan nan nan 227 220 219 222 222 231 234 238 241 237 239 245 249 249 252 255 257 258 259 nan nan 260 260 259 259 261 265 270 271 270 270 271 269 268 273 280 286 286 288 287 288 289 289 291 296 301 308 311 302 277 267 280 287 289 286 287 291 292 296 297 297 296 298 297 298 301 300 297 299 304 306 307 307 306 304 304
219 nan nan 212 212 nan nan nan nan 230 229 222 233 233 226 230 236 235 234 nan 239 246 250 248 245 247 252 255 255 255 nan 256 256 258 260 261 264 267 268 266 265 265 265 267 276 281 283 285 285 285 288 290 291 295 298 304 311 313 307 296 276 278 291 288 282 285 297 303 303 299 292 291 293 294 293 293 296 306 309 308 307 307 307 307 309 312
228 232 nan 227 216 223 224 226 nan 233 231 229 239 240 236 232 232 234 237 nan nan nan 242 247 245 244 248 254 254 255 256 255 257 258 263 264 264 265 264 262 264 269 275 279 280 281 284 290 290 287 287 289 293 297 301 305 310 312 314 306 284 279 285 282 272 283 303 310 306 295 288 286 287 288 290 293 299 303 305 305 308 308 310 310 310 309
236 239 237 239 234 236 234 234 237 241 243 242 245 248 247 241 235 235 nan 235 nan nan nan nan nan 249 249 252 257 256 260 262 261 260 262 262 263 262 262 263 268 272 276 279 281 284 285 284 285 289 291 292 296 297 301 307 309 308 313 306 284 272 272 267 266 284 304 310 305 294 284 282 282 284 288 292 295 300 304 307 309 310 310 308 308 309
233 237 238 246 247 244 nan 241 242 247 250 251 252 251 249 245 240 237 238 239 242 243 nan nan nan nan nan 250 255 260 258 255 254 257 260 262 264 267 267 268 270 272 276 280 280 280 282 285 287 287 288 290 292 295 301 306 308 305 307 301 282 266 259 258 267 281 299 312 309 296 285 287 287 286 287 290 293 297 301 305 307 306 305 306 309 311
234 237 242 242 245 249 255 252 252 250 251 253 255 252 249 248 247 248 251 251 248 247 nan nan nan nan nan nan 248 257 258 255 256 257 260 262 265 266 268 269 270 270 272 275 276 277 278 279 281 284 286 287 289 293 295 300 303 305 304 290 268 260 254 255 260 271 300 316 314 303 292 291 295 293 292 292 294 297 298 300 303 306 307 310 nan nan
nan 237 244 241 244 245 249 249 251 251 249 246 249 250 255 259 nan nan nan 253 nan nan nan nan nan nan nan nan nan 253 257 258 266 272 273 273 271 269 270 273 274 277 278 280 281 283 286 286 286 286 288 288 289 291 294 295 297 297 287 268 250 244 249 255 271 294 311 313 308 297 292 296 295 294 294 292 290 291 293 297 300 302 nan nan nan nan
nan nan 243 243 246 249 253 256 257 255 nan 249 nan nan nan nan nan nan nan nan nan nan nan nan nan nan nan nan nan 257 260 265 273 276 276 276 275 275 273 270 271 274 275 275 278 282 284 286 288 288 287 289 290 290 292 292 294 295 289 280 276 285 290 291 292 299 305 306 297 291 295 297 295 295 294 294 295 296 294 291 292 294 301 302 nan nan
239 nan nan nan 252 248 244 247 245 253 257 256 nan 255 nan nan nan nan nan nan nan nan nan nan nan nan nan nan nan nan nan 265 270 274 276 276 276 277 277 277 278 279 280 280 281 283 284 284 285 287 288 291 291 292 293 293 294 297 297 290 284 284 286 286 290 295 298 296 292 297 300 298 295 293 291 292 294 295 297 298 293 289 289 nan nan nan